Retour au catalogue

STARLINK-37307

ActifCommunicationsSSO
NORAD 68681·PAYLOAD·🇺🇸 United States

Lancé Apr 11, 2026 depuis Vandenberg Space Force Base

Loading…

Prochains Passages (prochaines 24 heures)

TLE

FraisSource: CelesTrak SupGP

Époque: Sep 15, 2026, 04:23 UTC

1 68681C 26077V   26258.18312500 -.00013366  00000+0 -41489-3 0  2581
2 68681  97.2849 128.1974 0002380  95.1122 171.6028 15.33447086    12

Suivez STARLINK-37307 en temps réel avec AllMySat

Download on the App Store